Weather in Bashkultaevo

Russia / Perm Krai     57°50′40″N   55°54′24″E
temp.,
°C
wind,
m/s
gust,
m/s
humid.,
%
clouds,
%
prec.,
mm/h
press.,
hPa
HPBL,
m
6 may, thu
thu623:00+6w410788 0.6 1003890
02:00+4wsw5118469 0.0 1004827
05:00+3w5118391 0.1 1006983
08:00+3w51071100 0.0 10081302
11:00+6wnw6105293 0.1 10111620
14:00+10w694076 0.0 10121899
17:00+11w69383 0.0 10131845
20:00+9w38523 0.0 1015519
7 may, fri
fri723:00+5wsw24725 0.0 101675
02:00+5ssw257833 0.0 101776
05:00+5ssw3108999 0.0 1018178
08:00+10ssw41277100 0.0 1018382
11:00+15sw59577 0.0 1017933
14:00+18sw6941100 0.0 10172383
17:00+16ssw4951100 0.0 1017749
20:00+14ssw41162100 0.0 1017656
8 may, sat
sat823:00+12ssw31172100 0.0 1018388
02:00+10ssw3981100 0.0 1018208
05:00+8sw2490100 0.0 101977
08:00+11wnw1279100 0.0 1020157
11:00+12nne1173100 0.0 1020398
14:00+18s1250100 0.0 10191336
17:00+18nw0244100 0.1 10191802
20:00+15ese2365100 0.1 101970
9 may, sun
sun923:00+11ese227817 0.1 102022
02:00+10se22835 0.0 102041
05:00+9se22855 0.0 102032
08:00+13se256541 0.0 1020250
11:00+18sse35445 0.0 10191314
14:00+20sse453481 0.0 10182637
17:00+18sse1346100 0.0 1018188
20:00+16se2756100 0.0 1019251
10 may, mon
mon1023:00+14sse2562100 0.0 102094
02:00+14sse246397 0.0 102074
05:00+11s237082 0.0 102039
08:00+15sw1360100 0.0 1022171
11:00+18w244798 0.0 10221136
14:00+17wnw5657100 0.3 10221201
17:00+9nnw4887100 0.5 1025585
20:00+7nnw3791100 0.8 1026569